Surface/Precipitation History
04/22/2014 03:15  to  4/23/2014 03:15
Change End Date:
Date/Time
(MDT)
Sf
Temp Chem Water Layer Surface Precipitation
Sf Sub Frz Factor Pct Depth IcePct Cond Salin Type Intens Accum Rate
04/23/2014 02:55 Wet 32.5F 45F 32F 5 0% 0.00 in 0% 0 mhos 0 Yes - - -
04/23/2014 02:53 Wet 32.5F 45F 32F 35 0% 0.00 in 0% 0 mhos 0 Yes - - -
04/23/2014 02:43 Wet 32.7F 45F 32F 5 0% 0.00 in 0% 0 mhos 0 Yes - - -
04/23/2014 02:33 Wet 32.9F 45F 32F 5 0% 0.40 in 0% 0 mhos 0 Yes - - -
04/23/2014 02:25 Wet 33.1F 45F 32F 30 0% 0.00 in 0% 0 mhos 0 Yes - - -
04/23/2014 02:23 Wet 33.1F 45F 32F 10 0% 0.00 in 0% 0 mhos 0 Yes - - -
04/23/2014 02:13 Wet 32.7F 45F 32F 5 0% 0.30 in 0% 0 mhos 0 Yes - - -
04/23/2014 02:02 Wet 32.9F 45F 32F 5 0% 0.20 in 0% 0 mhos 0 Yes - - -
04/23/2014 01:55 Wet 32.9F 46F 32F 5 0% 0.20 in 0% 0 mhos 0 Yes - - -
04/23/2014 01:52 Wet 32.9F 46F 32F 5 0% 0.20 in 0% 0 mhos 0 Yes - - -
04/23/2014 01:42 Wet 32.9F 46F 32F 5 0% 0.20 in 0% 0 mhos 0 Yes - - -
04/23/2014 01:32 Wet 32.7F 46F 32F 5 0% 0.20 in 0% 0 mhos 0 Yes - - -
04/23/2014 01:25 Wet 32.7F 46F 32F 5 0% 0.20 in 0% 0 mhos 0 Yes - - -
04/23/2014 01:22 Wet 32.7F 46F 32F 5 0% 0.20 in 0% 0 mhos 0 Yes - - -
04/23/2014 01:12 Wet 32.7F 46F 32F 10 0% 0.20 in 0% 0 mhos 0 Yes - - -
Date/Time
(MDT)
Sf
Temp Chem Water Layer Surface Precipitation
Sf Sub Frz Factor Pct Depth IcePct Cond Salin Type Intens Accum Rate
04/23/2014 01:02 Wet 32.7F 46F 32F 5 0% 0.20 in 0% 0 mhos 0 Yes - - -
04/23/2014 00:55 Wet 32.7F 46F 32F 5 0% 0.20 in 0% 0 mhos 0 Yes - - -
04/23/2014 00:52 Wet 32.7F 46F 32F 5 0% 0.20 in 0% 0 mhos 0 Yes - - -
04/23/2014 00:42 Wet 32.9F 47F 32F 5 0% 0.10 in 0% 0 mhos 0 Yes - - -
04/23/2014 00:32 Wet 33.1F 47F 32F 5 0% 0.00 in 0% 0 mhos 0 Yes - - -
04/23/2014 00:25 Wet 33.4F 47F 32F 5 0% 0.00 in 0% 0 mhos 0 Yes - - -
04/23/2014 00:22 Wet 33.6F 47F 32F 10 0% 0.20 in 0% 0 mhos 0 Yes - - -
04/23/2014 00:12 Wet 34.0F 47F 32F 5 0% 0.00 in 0% 0 mhos 0 Yes - - -
04/23/2014 00:02 Wet 35.6F 47F 32F 5 0% 1.50 in 0% 0 mhos 0 Yes - - -
04/23/2014 00:00 Wet 36.0F 47F 32F 5 0% 0.00 in 0% 0 mhos 0 Yes - - -
04/22/2014 23:52 Wet 36.9F 47F 32F 5 0% 0.00 in 0% 0 mhos 0 Yes - - -
04/22/2014 23:42 Wet 37.4F 47F 32F 5 0% 0.00 in 0% 0 mhos 0 Yes - - -
04/22/2014 23:32 Wet 37.2F 48F 32F 5 0% 0.00 in 0% 0 mhos 0 - - - -
04/22/2014 23:25 Wet 37.2F 48F 32F 5 0% 0.00 in 0% 0 mhos 0 Yes - - -
04/22/2014 23:22 Wet 37.4F 48F 32F 5 0% 0.00 in 0% 0 mhos 0 Yes - - -
Date/Time
(MDT)
Sf
Temp Chem Water Layer Surface Precipitation
Sf Sub Frz Factor Pct Depth IcePct Cond Salin Type Intens Accum Rate
04/22/2014 23:12 Wet 37.4F 48F 32F 5 0% 0.00 in 0% 0 mhos 0 Yes - - -
04/22/2014 23:02 Wet 37.6F 48F 32F 5 0% 0.00 in 0% 0 mhos 0 Yes - - -
04/22/2014 22:55 Wet 37.4F 48F 32F 5 0% 0.00 in 0% 0 mhos 0 Yes - - -
04/22/2014 22:51 Wet 37.4F 48F 32F 5 0% 0.00 in 0% 0 mhos 0 Yes - - -
04/22/2014 22:41 Wet 38.1F 48F 32F 5 0% 0.00 in 0% 0 mhos 0 Yes - - -
04/22/2014 22:31 Wet 38.3F 48F 32F 5 0% 0.00 in 0% 0 mhos 0 Yes - - -
04/22/2014 22:25 Wet 38.1F 48F 32F 5 0% 0.00 in 0% 0 mhos 0 Yes - - -
04/22/2014 22:21 Wet 38.1F 49F 32F 5 0% 0.00 in 0% 0 mhos 0 Yes - - -
04/22/2014 22:11 Wet 38.5F 49F 32F 5 0% 0.00 in 0% 0 mhos 0 Yes - - -
04/22/2014 22:01 Wet 38.7F 49F 32F 5 0% 0.00 in 0% 0 mhos 0 Yes - - -
04/22/2014 21:55 Wet 38.8F 49F 32F 5 0% 0.00 in 0% 0 mhos 0 Yes - - -
04/22/2014 21:51 Wet 38.8F 49F 32F 5 0% 0.00 in 0% 0 mhos 0 Yes - - -
04/22/2014 21:41 Wet 38.8F 49F 32F 5 0% 0.00 in 0% 0 mhos 0 Yes - - -
04/22/2014 21:31 Wet 38.7F 49F 32F 5 0% 0.00 in 0% 0 mhos 0 Yes - - -
04/22/2014 21:26 Wet 38.7F 49F 32F 5 0% 0.00 in 0% 0 mhos 0 Yes - - -
Date/Time
(MDT)
Sf
Temp Chem Water Layer Surface Precipitation
Sf Sub Frz Factor Pct Depth IcePct Cond Salin Type Intens Accum Rate
04/22/2014 21:21 Wet 38.5F 49F 32F 5 0% 0.00 in 0% 0 mhos 0 Yes - - -
04/22/2014 21:11 Wet 38.5F 50F 32F 5 0% 0.00 in 0% 0 mhos 0 Yes - - -
04/22/2014 21:01 Wet 38.3F 50F 32F 5 0% 0.00 in 0% 0 mhos 0 Yes - - -
04/22/2014 20:55 Wet 39.0F 50F 32F 5 0% 0.00 in 0% 0 mhos 0 Yes - - -
04/22/2014 20:51 Wet 39.4F 50F 32F 5 0% 0.00 in 0% 0 mhos 0 Yes - - -
04/22/2014 20:41 Wet 39.7F 50F 32F 5 0% 0.00 in 0% 0 mhos 0 Yes - - -
04/22/2014 20:31 Wet 39.6F 50F 32F 5 0% 0.00 in 0% 0 mhos 0 Yes - - -
04/22/2014 20:25 Wet 39.9F 50F 32F 5 0% 0.00 in 0% 0 mhos 0 Yes - - -
04/22/2014 20:21 Wet 40.3F 50F 32F 5 0% 0.10 in 0% 0 mhos 0 Yes - - -
04/22/2014 20:10 Wet 41.9F 50F 32F 5 0% 0.00 in 0% 0 mhos 0 Yes - - -
04/22/2014 20:00 Wet 42.4F 51F 32F 5 0% 0.00 in 0% 0 mhos 0 Yes - - -
04/22/2014 19:55 Wet 43.0F 51F 32F 5 0% 0.00 in 0% 0 mhos 0 Yes - - -
04/22/2014 19:50 Wet 43.5F 51F 32F 5 0% 0.00 in 0% 0 mhos 0 Yes - - -
04/22/2014 19:40 Wet 43.7F 51F 32F 5 0% 0.00 in 0% 0 mhos 0 Yes - - -
04/22/2014 19:40 Wet 43.9F 51F 32F 5 0% 0.00 in 0% 0 mhos 0 Yes - - -
Date/Time
(MDT)
Sf
Temp Chem Water Layer Surface Precipitation
Sf Sub Frz Factor Pct Depth IcePct Cond Salin Type Intens Accum Rate
04/22/2014 19:30 Wet 44.1F 51F 32F 5 0% 0.00 in 0% 0 mhos 0 Yes - - -
04/22/2014 19:25 Wet 44.2F 51F 32F 5 0% 0.00 in 0% 0 mhos 0 Yes - - -
04/22/2014 19:20 Wet 44.4F 51F 32F 5 0% 0.00 in 0% 0 mhos 0 Yes - - -
04/22/2014 19:10 Wet 44.6F 51F 32F 5 0% 0.00 in 0% 0 mhos 0 Yes - - -
04/22/2014 19:10 Wet 45.0F 51F 32F 5 0% 0.00 in 0% 0 mhos 0 Yes - - -
04/22/2014 19:00 Wet 45.0F 51F 32F 5 0% 0.00 in 0% 0 mhos 0 Yes - - -
04/22/2014 18:55 Wet 45.0F 51F 32F 5 0% 0.00 in 0% 0 mhos 0 Yes - - -
04/22/2014 18:50 Wet 45.1F 51F 32F 5 0% 0.00 in 0% 0 mhos 0 Yes - - -
04/22/2014 18:40 Wet 46.2F 51F 32F 5 0% 0.00 in 0% 0 mhos 0 Yes - - -
04/22/2014 18:40 Wet 46.2F 51F 32F 5 0% 0.00 in 0% 0 mhos 0 Yes - - -
04/22/2014 18:30 Wet 46.4F 51F 32F 5 0% 0.00 in 0% 0 mhos 0 Yes - - -
04/22/2014 18:25 Wet 46.8F 51F 32F 5 0% 0.00 in 0% 0 mhos 0 Yes - - -
04/22/2014 18:20 Wet 47.3F 52F 32F 5 0% 0.00 in 0% 0 mhos 0 Yes - - -
04/22/2014 18:10 Wet 48.2F 52F 32F 5 0% 0.00 in 0% 0 mhos 0 None None - -
04/22/2014 18:10 Wet 48.2F 52F 32F 5 0% 0.00 in 0% 0 mhos 0 None None - -
Date/Time
(MDT)
Sf
Temp Chem Water Layer Surface Precipitation
Sf Sub Frz Factor Pct Depth IcePct Cond Salin Type Intens Accum Rate
04/22/2014 18:00 Wet 48.9F 52F 32F 5 0% 0.00 in 0% 0 mhos 0 None None - -
04/22/2014 17:55 Wet 48.9F 52F 32F 5 0% 0.00 in 0% 0 mhos 0 None None - -
04/22/2014 17:50 Wet 49.3F 52F 32F 5 0% 0.00 in 0% 0 mhos 0 None None - -
04/22/2014 17:40 Wet 48.9F 52F 32F 5 0% 0.00 in 0% 0 mhos 0 None None - -
04/22/2014 17:40 Wet 48.9F 52F 32F 5 0% 0.00 in 0% 0 mhos 0 None None - -
04/22/2014 17:30 Wet 49.3F 52F 32F 5 0% 0.00 in 0% 0 mhos 0 None None - -
04/22/2014 17:25 Wet 49.3F 52F 32F 5 0% 0.00 in 0% 0 mhos 0 None None - -
04/22/2014 17:20 Wet 49.5F 52F 32F 5 0% 0.00 in 0% 0 mhos 0 None None - -
04/22/2014 17:09 Wet 49.5F 53F 32F 5 0% 0.00 in 0% 0 mhos 0 None None - -
04/22/2014 16:59 Wet 50.0F 53F 32F 5 0% 0.00 in 0% 0 mhos 0 Yes - - -
04/22/2014 16:55 Wet 49.5F 53F 32F 5 0% 0.00 in 0% 0 mhos 0 Yes - - -
04/22/2014 16:49 Wet 48.9F 53F 32F 5 0% 0.00 in 0% 0 mhos 0 Yes - - -
04/22/2014 16:39 Wet 48.2F 53F 32F 5 0% 0.00 in 0% 0 mhos 0 Yes - - -
04/22/2014 16:29 Wet 48.7F 53F 32F 5 0% 0.00 in 0% 0 mhos 0 Yes - - -
04/22/2014 16:25 Wet 48.9F 53F 32F 5 0% 0.00 in 0% 0 mhos 0 Yes - - -
Date/Time
(MDT)
Sf
Temp Chem Water Layer Surface Precipitation
Sf Sub Frz Factor Pct Depth IcePct Cond Salin Type Intens Accum Rate
04/22/2014 16:19 Wet 49.3F 53F 32F 5 0% 0.00 in 0% 0 mhos 0 Yes - - -
04/22/2014 16:09 Wet 51.3F 53F 32F 5 0% 0.00 in 0% 0 mhos 0 Yes - - -
04/22/2014 15:59 Wet 54.3F 53F 32F 5 0% 0.00 in 0% 0 mhos 0 Yes - - -
04/22/2014 15:55 Wet 55.6F 53F 32F 5 0% 1.40 in 0% 0 mhos 0 Yes - - -
04/22/2014 15:49 Dry 58.1F 53F - - - - - 0 mhos 0 None None - -
04/22/2014 15:39 Dry 59.7F 53F - - - - - 0 mhos 0 None None - -
04/22/2014 15:29 Wet 62.2F 53F 32F 5 0% 0.00 in 0% 0 mhos 0 None None - -
04/22/2014 15:25 Wet 59.5F 53F 32F 5 0% 0.00 in 0% 0 mhos 0 None None - -
04/22/2014 15:19 Wet 58.1F 53F 32F 5 0% 0.00 in 0% 0 mhos 0 None None - -
04/22/2014 15:09 Wet 55.6F 53F 32F 5 0% 0.00 in 0% 0 mhos 0 None None - -
04/22/2014 14:59 Wet 50.4F 53F 32F 5 0% 0.00 in 0% 0 mhos 0 Yes - - -
04/22/2014 14:55 Wet 50.0F 53F 32F 5 0% 0.00 in 0% 0 mhos 0 Yes - - -
04/22/2014 14:49 Wet 50.4F 53F 32F 5 0% 0.00 in 0% 0 mhos 0 Yes - - -
04/22/2014 14:39 Wet 54.0F 53F 32F 5 0% 0.00 in 0% 0 mhos 0 Yes - - -
04/22/2014 14:29 Wet 58.6F 53F 32F 5 0% 0.00 in 0% 0 mhos 0 None None - -
Date/Time
(MDT)
Sf
Temp Chem Water Layer Surface Precipitation
Sf Sub Frz Factor Pct Depth IcePct Cond Salin Type Intens Accum Rate
04/22/2014 14:25 Wet 59.2F 53F 32F 5 0% 0.00 in 0% 0 mhos 0 Yes - - -
04/22/2014 14:19 Wet 55.8F 53F 32F 5 0% 0.00 in 0% 0 mhos 0 Yes - - -
04/22/2014 14:08 Wet 54.5F 53F 32F 5 0% 0.00 in 0% 0 mhos 0 Yes - - -
04/22/2014 13:58 Wet 57.6F 53F 32F 5 0% 0.00 in 0% 0 mhos 0 Yes - - -
04/22/2014 13:55 Wet 60.8F 53F 32F 5 0% 0.00 in 0% 0 mhos 0 Yes - - -
04/22/2014 13:48 Wet 64.2F 52F 32F 5 0% 0.00 in 0% 0 mhos 0 Yes - - -
04/22/2014 13:38 Dry 83.5F 52F - - - - - 0 mhos 0 None None - -
04/22/2014 13:28 Dry 82.9F 52F - - - - - 0 mhos 0 None None - -
04/22/2014 13:25 Dry 76.8F 52F - - - - - 0 mhos 0 None None - -
04/22/2014 13:18 Dry 72.9F 52F - - - - - 0 mhos 0 Yes - - -
04/22/2014 13:08 Dry 76.5F 51F - - - - - 0 mhos 0 None None - -
04/22/2014 12:58 Dry 78.1F 51F - - - - - 0 mhos 0 None None - -
04/22/2014 12:55 Dry 79.2F 51F - - - - - 0 mhos 0 None None - -
04/22/2014 12:48 Dry 82.0F 51F - - - - - 0 mhos 0 None None - -
04/22/2014 12:38 Dry 83.1F 51F - - - - - 0 mhos 0 None None - -
Date/Time
(MDT)
Sf
Temp Chem Water Layer Surface Precipitation
Sf Sub Frz Factor Pct Depth IcePct Cond Salin Type Intens Accum Rate
04/22/2014 12:28 Dry 76.1F 50F - - - - - 0 mhos 0 None None - -
04/22/2014 12:25 Dry 77.7F 50F - - - - - 0 mhos 0 None None - -
04/22/2014 12:18 Dry 82.9F 50F - - - - - 0 mhos 0 None None - -
04/22/2014 12:08 Dry 82.2F 50F - - - - - 0 mhos 0 None None - -
04/22/2014 11:58 Dry 82.0F 50F - - - - - 0 mhos 0 None None - -
04/22/2014 11:55 Dry 82.2F 50F - - - - - 0 mhos 0 None None - -
04/22/2014 11:48 Dry 82.4F 49F - - - - - 0 mhos 0 None None - -
04/22/2014 11:38 Dry 82.6F 49F - - - - - 0 mhos 0 None None - -
04/22/2014 11:27 Dry 82.0F 49F - - - - - 0 mhos 0 None None - -
04/22/2014 11:25 Dry 81.7F 49F - - - - - 0 mhos 0 None None - -
04/22/2014 11:17 Dry 80.4F 49F - - - - - 0 mhos 0 None None - -
04/22/2014 11:07 Dry 77.5F 49F - - - - - 0 mhos 0 None None - -
04/22/2014 10:57 Dry 74.1F 49F - - - - - 0 mhos 0 None None - -
04/22/2014 10:55 Dry 73.8F 49F - - - - - 0 mhos 0 None None - -
04/22/2014 10:47 Dry 72.9F 49F - - - - - 0 mhos 0 None None - -
Date/Time
(MDT)
Sf
Temp Chem Water Layer Surface Precipitation
Sf Sub Frz Factor Pct Depth IcePct Cond Salin Type Intens Accum Rate
04/22/2014 10:37 Dry 70.0F 49F - - - - - 0 mhos 0 None None - -
04/22/2014 10:27 Dry 67.5F 49F - - - - - 0 mhos 0 None None - -
04/22/2014 10:25 Dry 66.7F 49F - - - - - 0 mhos 0 None None - -
04/22/2014 10:17 Dry 64.9F 49F - - - - - 0 mhos 0 None None - -
04/22/2014 10:07 Dry 62.8F 49F - - - - - 0 mhos 0 None None - -
04/22/2014 09:57 Dry 60.6F 49F - - - - - 0 mhos 0 None None - -
04/22/2014 09:55 Dry 60.1F 49F - - - - - 0 mhos 0 None None - -
04/22/2014 09:47 Dry 58.6F 49F - - - - - 0 mhos 0 None None - -
04/22/2014 09:37 Dry 55.4F 49F - - - - - 0 mhos 0 None None - -
04/22/2014 09:27 Wet 50.4F 49F 32F 5 0% 0.00 in 0% 0 mhos 0 Yes - - -
04/22/2014 09:25 Wet 49.8F 49F 32F 5 0% 0.00 in 0% 0 mhos 0 Yes - - -
04/22/2014 09:17 Wet 48.2F 49F 32F 5 0% 0.00 in 0% 0 mhos 0 Yes - - -
04/22/2014 09:07 Dry 50.2F 49F - - - - - 0 mhos 0 None None - -
04/22/2014 08:57 Dry 50.2F 49F - - - - - 0 mhos 0 None None - -
04/22/2014 08:55 Dry 50.4F 49F - - - - - 0 mhos 0 None None - -
Date/Time
(MDT)
Sf
Temp Chem Water Layer Surface Precipitation
Sf Sub Frz Factor Pct Depth IcePct Cond Salin Type Intens Accum Rate
04/22/2014 08:47 Dry 49.1F 49F - - - - - 0 mhos 0 None None - -
04/22/2014 08:37 Dry 47.5F 49F - - - - - 0 mhos 0 None None - -
04/22/2014 08:26 Dry 46.9F 49F - - - - - 0 mhos 0 None None - -
04/22/2014 08:25 Dry 46.8F 49F - - - - - 0 mhos 0 None None - -
04/22/2014 08:16 Dry 46.0F 49F - - - - - 0 mhos 0 None None - -
04/22/2014 08:10 Dry 45.3F 49F - - - - - 0 mhos 0 None None - -
04/22/2014 08:06 Dry 45.0F 49F - - - - - 0 mhos 0 None None - -
04/22/2014 07:56 Dry 44.8F 49F - - - - - 0 mhos 0 None None - -
04/22/2014 07:55 Dry 44.8F 49F - - - - - 0 mhos 0 None None - -
04/22/2014 07:46 Dry 45.0F 49F - - - - - 0 mhos 0 None None - -
04/22/2014 07:40 Dry 45.1F 49F - - - - - 0 mhos 0 None None - -
04/22/2014 07:36 Dry 45.1F 49F - - - - - 0 mhos 0 None None - -
04/22/2014 07:26 Dry 44.6F 49F - - - - - 0 mhos 0 None None - -
04/22/2014 07:25 Dry 44.4F 49F - - - - - 0 mhos 0 None None - -
04/22/2014 07:16 Dry 43.9F 49F - - - - - 0 mhos 0 None None - -
Date/Time
(MDT)
Sf
Temp Chem Water Layer Surface Precipitation
Sf Sub Frz Factor Pct Depth IcePct Cond Salin Type Intens Accum Rate
04/22/2014 07:10 Dry 43.7F 49F - - - - - 0 mhos 0 None None - -
04/22/2014 07:06 Dry 43.7F 49F - - - - - 0 mhos 0 None None - -
04/22/2014 06:56 Dry 43.5F 50F - - - - - 0 mhos 0 None None - -
04/22/2014 06:55 Dry 43.3F 50F - - - - - 0 mhos 0 None None - -
04/22/2014 06:46 Dry 43.2F 50F - - - - - 0 mhos 0 None None - -
04/22/2014 06:40 Dry 43.2F 50F - - - - - 0 mhos 0 None None - -
04/22/2014 06:36 Dry 43.2F 50F - - - - - 0 mhos 0 None None - -
04/22/2014 06:26 Dry 43.3F 50F - - - - - 0 mhos 0 None None - -
04/22/2014 06:25 Dry 43.3F 50F - - - - - 0 mhos 0 None None - -
04/22/2014 06:16 Dry 43.7F 50F - - - - - 0 mhos 0 None None - -
04/22/2014 06:10 Dry 44.1F 50F - - - - - 0 mhos 0 None None - -
04/22/2014 06:06 Dry 44.2F 50F - - - - - 0 mhos 0 None None - -
04/22/2014 05:56 Dry 44.2F 50F - - - - - 0 mhos 0 None None - -
04/22/2014 05:55 Dry 44.2F 50F - - - - - 0 mhos 0 None None - -
04/22/2014 05:46 Dry 44.6F 50F - - - - - 0 mhos 0 None None - -
Date/Time
(MDT)
Sf
Temp Chem Water Layer Surface Precipitation
Sf Sub Frz Factor Pct Depth IcePct Cond Salin Type Intens Accum Rate
04/22/2014 05:36 Dry 44.4F 50F - - - - - 0 mhos 0 None None - -
04/22/2014 05:25 Dry 44.1F 50F - - - - - 0 mhos 0 None None - -
04/22/2014 05:25 Dry 44.1F 50F - - - - - 0 mhos 0 None None - -
04/22/2014 05:15 Dry 44.4F 50F - - - - - 0 mhos 0 None None - -
04/22/2014 05:05 Dry 44.6F 51F - - - - - 0 mhos 0 None None - -
04/22/2014 04:55 Dry 44.6F 51F - - - - - 0 mhos 0 None None - -
04/22/2014 04:55 Dry 44.6F 51F - - - - - 0 mhos 0 None None - -
04/22/2014 04:45 Dry 44.8F 51F - - - - - 0 mhos 0 None None - -
04/22/2014 04:35 Dry 45.0F 51F - - - - - 0 mhos 0 None None - -
04/22/2014 04:25 Dry 45.1F 51F - - - - - 0 mhos 0 None None - -
04/22/2014 04:25 Dry 45.1F 51F - - - - - 0 mhos 0 None None - -
04/22/2014 04:15 Dry 45.1F 51F - - - - - 0 mhos 0 None None - -
04/22/2014 04:05 Dry 45.1F 51F - - - - - 0 mhos 0 None None - -
04/22/2014 03:55 Dry 45.5F 51F - - - - - 0 mhos 0 None None - -
04/22/2014 03:55 Dry 45.5F 51F - - - - - 0 mhos 0 None None - -
Date/Time
(MDT)
Sf
Temp Chem Water Layer Surface Precipitation
Sf Sub Frz Factor Pct Depth IcePct Cond Salin Type Intens Accum Rate
04/22/2014 03:45 Dry 45.7F 51F - - - - - 0 mhos 0 None None - -
04/22/2014 03:35 Dry 45.7F 51F - - - - - 0 mhos 0 None None - -
04/22/2014 03:25 Dry 45.9F 51F - - - - - 0 mhos 0 None None - -
04/22/2014 03:25 Dry 45.9F 51F - - - - - 0 mhos 0 None None - -
04/22/2014 03:15 Dry 45.9F 52F - - - - - 0 mhos 0 None None - -
Change End Date:
Copyright © 1998-2005 Surface Systems, Inc.
All Rights Reserved
Send comments about the data to:
SCAN Web ® is a registered trademark of Surface Systems, Inc.
SCAN Web Version 5.6